When you browse on this site, cookies collect data to enhance your experience and personalize the content and advertising you see.
Visit our Privacy Policy to learn more. By continuing to use the site, you agree to this use of cookies and data.
  • Em Portugal
  • Lista de países
  • Para 7 dias
  • Temperatura da água
  • Mapa do tempo
  • Widgets de tempo
  • user-avatar
    Iniciar Sessão

    Previsão horária em Maan

    Hoje, 25 Agosto, Domingo

    Tempo Temperatura Precipitação Vento Pressão Humidade
    00:00 +20°C° 0 mm 1 m/s 635 mmHg 67%
    01:00 +20°C° 0 mm 1 m/s 635 mmHg 69%
    02:00 +19°C° 0 mm 1 m/s 634 mmHg 71%
    03:00 +19°C° 0 mm 1 m/s 634 mmHg 73%
    04:00 +16°C° 0 mm 0 m/s 634 mmHg 75%
    05:00 +15°C° 0 mm 0 m/s 634 mmHg 76%
    06:00 +18°C° 0 mm 0 m/s 635 mmHg 65%
    07:00 +23°C° 0 mm 1 m/s 636 mmHg 54%
    08:00 +25°C° 0 mm 1 m/s 637 mmHg 43%
    09:00 +27°C° 0 mm 2 m/s 638 mmHg 36%
    10:00 +29°C° 0 mm 3 m/s 638 mmHg 30%
    11:00 +32°C° 0 mm 4 m/s 639 mmHg 23%
    12:00 +33°C° 0 mm 4 m/s 638 mmHg 23%
    13:00 +33°C° 0 mm 5 m/s 638 mmHg 22%
    14:00 +34°C° 0 mm 5 m/s 638 mmHg 21%
    15:00 +33°C° 0 mm 6 m/s 637 mmHg 21%
    16:00 +32°C° 0 mm 6 m/s 637 mmHg 20%
    17:00 +30°C° 0 mm 6 m/s 637 mmHg 20%
    18:00 +28°C° 0 mm 5 m/s 636 mmHg 32%
    19:00 +25°C° 0 mm 4 m/s 636 mmHg 44%
    20:00 +21°C° 0 mm 3 m/s 635 mmHg 57%
    21:00 +20°C° 0 mm 2 m/s 635 mmHg 57%
    22:00 +20°C° 0 mm 2 m/s 635 mmHg 58%
    23:00 +20°C° 0 mm 1 m/s 636 mmHg 59%

    Amanhã, 26 Agosto, Segunda-feira

    Tempo Temperatura Precipitação Vento Pressão Humidade
    00:00 +20°C° 0 mm 1 m/s 635 mmHg 60%
    01:00 +19°C° 0 mm 1 m/s 635 mmHg 62%
    02:00 +18°C° 0 mm 1 m/s 635 mmHg 63%
    03:00 +18°C° 0 mm 1 m/s 634 mmHg 60%
    04:00 +18°C° 0 mm 1 m/s 634 mmHg 58%
    05:00 +18°C° 0 mm 1 m/s 634 mmHg 55%
    06:00 +20°C° 0 mm 1 m/s 635 mmHg 47%
    07:00 +23°C° 0 mm 1 m/s 637 mmHg 39%
    08:00 +26°C° 0 mm 1 m/s 638 mmHg 31%
    09:00 +28°C° 0 mm 2 m/s 638 mmHg 28%
    10:00 +30°C° 0 mm 2 m/s 638 mmHg 24%
    11:00 +31°C° 0 mm 3 m/s 639 mmHg 21%
    12:00 +33°C° 0 mm 3 m/s 638 mmHg 20%
    13:00 +34°C° 0 mm 4 m/s 638 mmHg 19%
    14:00 +34°C° 0 mm 4 m/s 638 mmHg 18%
    15:00 +33°C° 0 mm 5 m/s 637 mmHg 19%
    16:00 +33°C° 0 mm 5 m/s 637 mmHg 20%
    17:00 +32°C° 0 mm 5 m/s 636 mmHg 22%
    18:00 +28°C° 0 mm 4 m/s 636 mmHg 32%
    19:00 +25°C° 0 mm 3 m/s 636 mmHg 41%
    20:00 +21°C° 0 mm 2 m/s 635 mmHg 51%
    21:00 +20°C° 0 mm 2 m/s 636 mmHg 52%
    22:00 +20°C° 0 mm 2 m/s 636 mmHg 54%
    23:00 +19°C° 0 mm 2 m/s 636 mmHg 55%

    Depois de amanhã, 27 Agosto, Terça-feira

    Tempo Temperatura Precipitação Vento Pressão Humidade
    00:00 +19°C° 0 mm 2 m/s 635 mmHg 57%
    01:00 +19°C° 0 mm 1 m/s 635 mmHg 59%
    02:00 +19°C° 0 mm 1 m/s 635 mmHg 60%
    03:00 +18°C° 0 mm 1 m/s 635 mmHg 59%
    04:00 +18°C° 0 mm 1 m/s 634 mmHg 58%
    05:00 +16°C° 0 mm 1 m/s 634 mmHg 57%
    06:00 +20°C° 0 mm 1 m/s 635 mmHg 49%
    07:00 +23°C° 0 mm 1 m/s 636 mmHg 41%
    08:00 +25°C° 0 mm 1 m/s 637 mmHg 33%
    09:00 +27°C° 0 mm 2 m/s 638 mmHg 29%
    10:00 +29°C° 0 mm 2 m/s 638 mmHg 25%
    11:00 +31°C° 0 mm 3 m/s 638 mmHg 21%
    12:00 +31°C° 0 mm 3 m/s 638 mmHg 21%
    13:00 +33°C° 0 mm 4 m/s 638 mmHg 20%
    14:00 +34°C° 0 mm 5 m/s 638 mmHg 19%
    15:00 +33°C° 0 mm 6 m/s 637 mmHg 20%
    16:00 +30°C° 0 mm 6 m/s 637 mmHg 22%
    17:00 +29°C° 0 mm 7 m/s 636 mmHg 24%
    18:00 +26°C° 0 mm 6 m/s 636 mmHg 35%
    19:00 +23°C° 0 mm 5 m/s 635 mmHg 46%
    20:00 +20°C° 0 mm 4 m/s 635 mmHg 58%
    21:00 +19°C° 0 mm 4 m/s 635 mmHg 54%
    22:00 +19°C° 0 mm 3 m/s 635 mmHg 50%
    23:00 +19°C° 0 mm 3 m/s 635 mmHg 46%

    28 Agosto, Quarta-feira

    Tempo Temperatura Precipitação Vento Pressão Humidade
    00:00 +18°C° 0 mm 3 m/s 635 mmHg 44%
    01:00 +18°C° 0 mm 3 m/s 635 mmHg 41%
    02:00 +17°C° 0 mm 3 m/s 634 mmHg 39%
    03:00 +16°C° 0 mm 2 m/s 634 mmHg 40%
    04:00 +15°C° 0 mm 1 m/s 634 mmHg 41%
    05:00 +15°C° 0 mm 1 m/s 634 mmHg 43%
    06:00 +18°C° 0 mm 1 m/s 635 mmHg 37%
    07:00 +21°C° 0 mm 1 m/s 636 mmHg 32%
    08:00 +22°C° 0 mm 0 m/s 637 mmHg 26%
    09:00 +26°C° 0 mm 1 m/s 637 mmHg 24%
    10:00 +28°C° 0 mm 2 m/s 637 mmHg 22%
    11:00 +30°C° 0 mm 2 m/s 637 mmHg 20%
    12:00 +31°C° 0 mm 3 m/s 637 mmHg 19%
    13:00 +33°C° 0 mm 4 m/s 637 mmHg 18%
    14:00 +34°C° 0 mm 4 m/s 637 mmHg 17%
    15:00 +32°C° 0 mm 5 m/s 636 mmHg 20%
    16:00 +30°C° 0 mm 5 m/s 636 mmHg 22%
    17:00 +29°C° 0 mm 6 m/s 635 mmHg 25%
    18:00 +26°C° 0 mm 5 m/s 635 mmHg 39%
    19:00 +22°C° 0 mm 4 m/s 634 mmHg 53%
    20:00 +19°C° 0 mm 4 m/s 634 mmHg 66%
    21:00 +19°C° 0 mm 3 m/s 634 mmHg 67%
    22:00 +18°C° 0 mm 3 m/s 634 mmHg 68%
    23:00 +18°C° 0 mm 2 m/s 634 mmHg 68%

    29 Agosto, Quinta-feira

    Tempo Temperatura Precipitação Vento Pressão Humidade
    00:00 +18°C° 0 mm 2 m/s 634 mmHg 66%
    01:00 +17°C° 0 mm 2 m/s 634 mmHg 64%
    02:00 +17°C° 0 mm 2 m/s 634 mmHg 61%
    03:00 +16°C° 0 mm 1 m/s 634 mmHg 62%
    04:00 +16°C° 0 mm 1 m/s 634 mmHg 63%
    05:00 +15°C° 0 mm 1 m/s 633 mmHg 63%
    06:00 +19°C° 0 mm 1 m/s 634 mmHg 55%
    07:00 +22°C° 0 mm 1 m/s 635 mmHg 46%
    08:00 +24°C° 0 mm 1 m/s 636 mmHg 37%
    09:00 +26°C° 0 mm 1 m/s 636 mmHg 34%
    10:00 +28°C° 0 mm 2 m/s 637 mmHg 30%
    11:00 +30°C° 0 mm 3 m/s 637 mmHg 26%
    12:00 +31°C° 0 mm 3 m/s 637 mmHg 25%
    13:00 +32°C° 0 mm 4 m/s 637 mmHg 24%
    14:00 +33°C° 0 mm 5 m/s 636 mmHg 23%
    15:00 +32°C° 0 mm 5 m/s 636 mmHg 26%
    16:00 +30°C° 0 mm 5 m/s 635 mmHg 28%
    17:00 +29°C° 0 mm 6 m/s 635 mmHg 30%
    18:00 +26°C° 0 mm 5 m/s 635 mmHg 43%
    19:00 +22°C° 0 mm 5 m/s 634 mmHg 56%
    20:00 +19°C° 0 mm 4 m/s 634 mmHg 69%
    21:00 +19°C° 0 mm 4 m/s 634 mmHg 70%
    22:00 +18°C° 0 mm 3 m/s 634 mmHg 70%
    23:00 +18°C° 0 mm 3 m/s 634 mmHg 71%

    30 Agosto, Sexta-feira

    Tempo Temperatura Precipitação Vento Pressão Humidade
    00:00 +17°C° 0 mm 3 m/s 634 mmHg 68%
    01:00 +17°C° 0 mm 3 m/s 634 mmHg 65%
    02:00 +17°C° 0 mm 2 m/s 633 mmHg 61%
    03:00 +16°C° 0 mm 2 m/s 633 mmHg 62%
    04:00 +15°C° 0 mm 1 m/s 633 mmHg 63%
    05:00 +13°C° 0 mm 0 m/s 633 mmHg 63%
    06:00 +18°C° 0 mm 1 m/s 634 mmHg 55%
    07:00 +21°C° 0 mm 1 m/s 635 mmHg 47%
    08:00 +24°C° 0 mm 1 m/s 636 mmHg 38%
    09:00 +26°C° 0 mm 2 m/s 636 mmHg 34%
    10:00 +28°C° 0 mm 2 m/s 637 mmHg 29%
    11:00 +30°C° 0 mm 3 m/s 637 mmHg 25%
    12:00 +31°C° 0 mm 3 m/s 637 mmHg 23%
    13:00 +33°C° 0 mm 4 m/s 637 mmHg 21%
    14:00 +34°C° 0 mm 4 m/s 637 mmHg 19%
    15:00 +33°C° 0 mm 5 m/s 636 mmHg 21%
    16:00 +32°C° 0 mm 5 m/s 636 mmHg 23%
    17:00 +29°C° 0 mm 5 m/s 635 mmHg 25%
    18:00 +27°C° 0 mm 4 m/s 635 mmHg 39%
    19:00 +24°C° 0 mm 3 m/s 634 mmHg 52%
    20:00 +20°C° 0 mm 2 m/s 634 mmHg 65%
    21:00 +19°C° 0 mm 2 m/s 634 mmHg 67%
    22:00 +19°C° 0 mm 1 m/s 634 mmHg 69%
    23:00 +19°C° 0 mm 1 m/s 634 mmHg 70%
    Mostrar mais